Regional Weather Roundup
Issued by NWS Grand Forks, ND

Home | Current Version | Previous Version | Graphics & Text | Print | Product List | Glossary On
Versions: 1 2 3 4 5 6 7 8 9 10 11 12 13 14 15 16 17 18 19 20 21 22 23 24 25 26 27 28 29 30 31 32 33 34 35 36 37 38 39 40 41 42 43 44 45 46 47 48 49 50
595
ASUS43 KFGF 231110
RWRFGF
PRAIRIE TO PINES  WEATHER ROUNDUP
NATIONAL WEATHER SERVICE EASTERN NORTH DAKOTA/GRAND FORKS ND
600 AM CDT FRI JUN 23 2017

 **SATELLITE DATA USED TO AUGMENT SKY COVER AT AUTOMATED STATIONS**
 *****  WEATHER ACROSS EASTERN NORTH DAKOTA  *****

CITY           SKY/WX    TMP DP  RH WIND       PRES   REMARKS
GRAND FORKS    CLOUDY    60  54  80 NW14G23   29.75R
GRAND FRKS AFB CLOUDY    59  52  78 N14       29.76R
DEVILS LAKE    CLOUDY    56  48  74 NW24G31   29.84R
FARGO          CLOUDY    61  53  75 NW14      29.77R
WAHPETON ARPT  FAIR      54  46  76 W9        29.79R
$$

 ***** WEATHER ACROSS CENTRAL AND WESTERN NORTH DAKOTA  *****

CITY           SKY/WX    TMP DP  RH WIND       PRES   REMARKS
BISMARCK       CLOUDY    56  47  71 NW17G28   29.99R
MINOT          CLOUDY    53  42  66 NW22G31   29.96R
JAMESTOWN      CLOUDY    57  50  77 NW23G33   29.86R
MINOT AFB      CLOUDY    53  42  67 NW26      29.95R
GARRISON         N/A     49  44  83 NW14      29.99R
WILLISTON      CLOUDY    48  42  80 W13       30.10R
DICKINSON      MOCLDY    48  41  76 NW21G28   30.07R
HETTINGER      MOCLDY    51  42  71 NW20      30.11R
$$

 *****  OTHER AIRPORT OBSERVATIONS IN OUR AREA  *****

CITY           SKY/WX    TMP DP  RH WIND       PRES   REMARKS
WALHALLA       NOT AVBL
GRAFTON AIRPOR FAIR      57  54  88 NW15      29.77R
VALLEY CITY AR CLOUDY    57  54  88 NW20G29   29.84R
CANDO          NOT AVBL
CAVALIER APRT  CLOUDY    59  54  82 NW17      29.75R
GWINNER        PTSUNNY   59  52  77 NW16G22   29.84R
SHEYENNE NWR     N/A     60  53  76 NW15      29.95S
ROLLA            N/A     52  46  82 NW24G32   29.86R
 ***** THE ABOVE OBSERVATIONS ARE NON NWS ARE NOT QUALITY
       CONTROLLED AND MAY MIS-REPORT RAIN FOR SNOW...
$$

  *****  WEATHER ACROSS NORTHERN MINNESOTA  *****

CITY           SKY/WX    TMP DP  RH WIND       PRES   REMARKS
FLAG ISLAND    FAIR      55  52  88 NW17G25   29.62R
WARROAD        CLOUDY    52  48  87 W8        29.66R
ROSEAU           N/A     55  50  82 W9        29.67R
HALLOCK        CLOUDY    57  54  88 NW16G24   29.72R
THF RVR FALLS  CLOUDY    55  51  86 NW15G21   29.74R
BAUDETTE       FAIR      52  50  93 W10       29.63R
WASKISH        FAIR      55  52  88 W14G22    29.66R
CROOKSTON      MOCLDY    55  52  88 NW10      29.75R
STEPHEN NDAWN    N/A     57  52  82 NW16        N/A
GREENBUSH NDAW   N/A     55  54  94 NW12        N/A
$$
  *****  WEATHER ACROSS CENTRAL AND WEST MINNESOTA  *****

CITY           SKY/WX    TMP DP  RH WIND       PRES   REMARKS
FOSSTON        FAIR      54  48  82 W10       29.73R
BEMIDJI        CLOUDY    55  48  79 W10       29.70R
PARK RAPIDS    FAIR      54  47  77 W10       29.72S
ELBOW LAKE     CLOUDY    56  48  75 NW12G18   29.79R
WADENA         FAIR      54  46  76 W6        29.73F
DETROIT LAKES  CLOUDY    57  50  77 NW13      29.76R
MOORHEAD       MOCLDY    61  52  72 NW14      29.77R
FERGUS FALLS   CLOUDY    54  48  82 W9        29.75F
MORRIS MN      MOCLDY    57  48  72 W16       29.78S
STAPLES        FAIR      52  46  82 W7        29.73S
$$
  *****  WEATHER ELSEWHERE ACROSS MINNESOTA  *****

CITY           SKY/WX    TMP DP  RH WIND       PRES   REMARKS
DULUTH         FAIR      51  46  83 W8        29.65R
INTRNTL FALLS  MOCLDY    53  47  79 W7        29.60R
ELY            FAIR      52  45  76 W6        29.61S
CLOQUET        FAIR      54  45  71 W12       29.67R
WHEATON        FAIR      57  48  72 W10G16    29.82R
BRAINERD       FAIR      56  46  69 W8        29.72S
HIBBING        FAIR      50  45  83 W5        29.65R
ALEXANDRIA     FAIR      55  47  74 W12       29.78R
SAINT CLOUD    FAIR      55  48  77 NW9       29.73R
MINNEAPOLIS    FAIR      59  53  80 W7        29.72R
$$

  *****  WEATHER ACROSS SOUTH DAKOTA  *****

CITY           SKY/WX    TMP DP  RH WIND       PRES   REMARKS
SIOUX FALLS    FAIR      55  47  74 NW10      29.91R
BROOKINGS      FAIR      54  46  74 NW10      29.89R
WATERTOWN      FAIR      55  48  77 NW16G23   29.87R
HURON          FAIR      55  49  80 NW16      29.93R
SISSETON         N/A     59  52  77 W17G25    29.81R
ABERDEEN       CLOUDY    57  49  74 W14G21    29.90R
MITCHELL       FAIR      57  46  66 NW10      29.96R
PIERRE         FAIR      55  47  74 W15       30.02R
MOBRIDGE       CLOUDY    58  46  64 NW28G37   29.98R
RAPID CITY     FAIR      54  38  54 NW17      30.17R
$$

  *****  SOME WEATHER IN NEARBY STATES *****

CITY           SKY/WX    TMP DP  RH WIND       PRES   REMARKS
GLASGOW MT     FAIR      40  37  89 N8        30.19R
GREAT FALLS MT MOCLDY    41  37  86 CALM      30.29S
CHEYENNE WY    CLOUDY    47  38  71 N17G26    30.30R
SCOTTSBLUFF NE CLOUDY    54  38  54 NW17G24   30.27R
OMAHA NE       FAIR      62  56  80 N10       29.86R
DES MOINES IA  FAIR      65  62  90 N7        29.79S
DAVENPORT IA   FAIR      67  63  87 NE14      29.72R
CHICAGO IL     TSTM      68  65  90 NW13      29.66R
EAU CLAIRE WI  FAIR      57  56  96 S5        29.69S
LA CROSSE WI   FOG       61  61 100 CALM      29.73R VSB 1/4
$$

  *****  SOME NATIONAL WEATHER *****

CITY           SKY/WX    TMP DP  RH WIND       PRES   REMARKS
LA GUARDIA NY  PTSUNNY   79  72  79 SW7       29.82S
RALEIGH NC     LGT RAIN  74  73  97 SW10      30.01R FOG
ATLANTA GA     MOCLDY    72  71  97 S7        30.02S
NEW ORLEANS LA MOCLDY    80  77  90 S10       29.89R
OKLAHOMA CITY  FAIR      71  69  93 SW3       29.76R
ALBUQUERQUE NM FAIR      73  35  25 E6        29.99S
SALT LAKE CITY FAIR      63  39  41 W5        30.10R
LOS ANGELES CA CLOUDY    64  62  93 W5        29.86F
BOISE ID       FAIR      54  36  50 SE6       30.15R
SEATTLE WA     FAIR      58  47  66 NE7       30.23F
$$

*** WEATHER ACROSS MANITOBA...SASKATCHEWAN AND ONTARIO ***
                ***ONTARIO***

CITY           SKY/WX    TMP DP  RH WIND       PRES   REMARKS
GERALDTON      MOSUNNY   48  46  93 SW8       29.53R
THUNDER BAY    PTCLDY    50  48  93 W5        29.54S
SIOUX LOOKOUT  MOCLDY    54  50  87 NW5       29.54R
TORONTO        CLOUDY    68  68 100 SE8       29.65F
BIG TROUT LK   CLOUDY    54  50  87 E6        29.57
PICKLE LAKE    MOCLDY    54  48  82 S2        29.51
DRYDEN         CLOUDY    52  50  93 W7        29.56R
KENORA         MOCLDY    52  52 100 NW9       29.60R
$$
                *** MANITOBA***

CITY           SKY/WX    TMP DP  RH WIND       PRES   REMARKS
BRANDON        MOCLDY    54  46  76 NW15G21   29.85R
DAUPHIN        CLOUDY    54  46  76 NW13      29.83R
ISLAND LAKE    MOCLDY    57  54  88 NE7       29.60R
PILOT MOUND      N/A     52  48  87 NW18G26     N/A
THE PAS        DRIZZLE   46  45  93 NW16G22   29.82R FOG
THOMPSON       CLOUDY    45  41  87 NE12G24   29.78R
WINNIPEG       LGT RAIN  57  54  88 NW16G23   29.71R
LYNN LAKE      LGT RAIN  45  41  87 NE13G21   29.91R
CHURCHILL      PTSUNNY   39  36  87 N18G24    29.88R
GILLAM         CLOUDY    43  39  87 NE18G28   29.77R
$$
                ***SASKATCHEWAN***

CITY           SKY/WX    TMP DP  RH WIND       PRES   REMARKS
ESTEVAN        PTCLDY    45  39  81 NW17      30.03R
KINDERSLEY     PTCLDY    37  36  93 W6        30.19R
LLOYDMINSTER   CLEAR     39  37  93 W10       30.16S
PRINCE ALBERT  MOCLDY    45  37  76 NW10      30.05R
REGINA         PTCLDY    41  39  93 W14       30.07R
YORKTON        CLEAR     45  41  87 NW15      29.94R
N. BATTLEFORD  CLEAR     37  36  93 NW6       30.16R
LA RONGE       LGT RAIN  43  41  93 NW8       30.02R
SASKATOON      CLEAR     39  37  93 W9        30.13R
SWIFT CURRENT  CLEAR     39  36  87 W8        30.18R
$$
NOTE: THESE ARE AUTOMATED STATIONS WITH LIMITED QUALITY CONTROL
      "FAIR" INDICATES FEW OR NO CLOUDS BELOW 12,000 FEET WITH NO
      SIGNIFICANT WEATHER AND/OR OBSTRUCTIONS TO VISIBILITY.
      SKY/WX - SKY CONDITION AND SIGNIFICANT WEATHER.
      TMP - AIR TEMPERATURE.    DP   - DEWPOINT TEMPERATURE.
      RH  - RELATIVE HUMIDITY.  PRES - PRESSURE.
      HX  - HEAT INDEX.         WCI  - WIND CHILL INDEX.
$




USA.gov is the U.S. government's official web portal to all federal, state and local government web resources and services.